CZ-6A DEB

Satellite information

Favourite Embed

Satellite Type and Status

DEBRISIN ORBIT

Key statistics

Satellite CZ-6A DEB at a glance.

Uptime

914

Days in orbit

Revolutions

≈ 14.4

Per day

Orbit

SSO

Sun Synchronous Orbit

Inclination

98.8

Latest

Satellite identification and parameters

Extended collection of information and parameters for CZ-6A DEB.

Object identification

Identified? True

Debris? True

Object name: CZ-6A DEB

International designator: 2022-151AGS

Object number (NORAD): 56666

Object ID (CCSDS): 56666

Country: PEOPLES REPUBLIC OF CHINA (PRC)

Current information (Y/N): Y

RCS size: SMALL

Orbital parameters

Period: 99.842 minutes

Inclination: 98.7696 deg

SMA: 7129.097 km

Apoapsis: 806.826 km

Periapsis: 695.098 km

RAAN: 176.0334 deg

Eccentricy: 0.0078361

Argument of periapsis: 47.4936 deg

Mean anomaly: 313.2837 deg

Mean motion: 14.42284629 rev/day

Mean motion (dot): 0.00002164 rev/day2

B* drag term: 0.0006461 1/REarth

Two-line elements (TLE)

Creation date: May 11, 2025, 10:46 p.m.

Reference frame: TEME

Reference center: EARTH

Epoch: May 11, 2025, 2:06 p.m. UTC

TLE line 0: 0 CZ-6A DEB

TLE line 1: 1 56666U 22151AGS 25131.58794477 .00002164 00000-0 64610-3 0 9996

TLE line 2: 2 56666 98.7696 176.0334 0078361 47.4936 313.2837 14.42284629107465

Live tracking on map

Real-time ground track for satellite CZ-6A DEB.

In-orbit conjunctions

A list of the most updated potential collisions computed for object CZ-6A DEB.

Target Orbit TCA Probability of collision Miss distance Type
FENGYUN 1C DEB SSO 2024-11-10 15:52:08 0.0001683669 206.0 (m) DEBRIS
CZ-6A DEB LEO 2024-10-18 19:32:05 0.0002009999 314.0 (m) DEBRIS
CZ-6A DEB LEO 2024-10-01 07:14:20 0.0001198541 651.0 (m) DEBRIS

Associated space launch

Chinese satellite reported for atmospheric/ocean/environmental/spatial parameter research purposes, details TBD.

CZ-6A DEB was lifted into orbit during the mission ‘Long March 6A | Yunhai 3’, on board a Long March 6A space rocket.

The launch took place on Nov. 11, 2022, 10:52 p.m. from Launch Complex 9A.

For more information about the launch, click the button.

Launch to space Long March 6A | Yunhai 3
Long March 6A | Yunhai 3

Agency: N/A

Status: Launch Successful

Launch date: Nov. 11, 2022, 10:52 p.m. UTC

Rocket: Long March 6A

Launch pad: Launch Complex 9A

Location: Taiyuan Satellite Launch Center, People's Republic of China

...

Latest news about this satellite

There are no fresh news available about this satellite. Check back as we update our databases every day.


Newsletter sign-up

Weekly statistics, charts and insights to help you stay on top of the space industry.